Weather History for Topeka Forbes, KS

Change the Weather History Date:

Thursday, December 20, 2012

  Actual Average Record
Temperature  
Mean Temperature 28 °F -  
Max Temperature 33 °F 36 °F 63 °F (1966)
Min Temperature 23 °F 19 °F -16 °F (1983)
Degree Days  
Heating Degree Days 37    
Moisture  
Dew Point 21 °F    
Average Humidity 80    
Maximum Humidity 96    
Minimum Humidity 63    
Precipitation  
Precipitation 0.10 in - - ()
Sea Level Pressure  
Sea Level Pressure 29.90 in    
Wind  
Wind Speed 27 mph (NW)    
Max Wind Speed 43 mph    
Max Gust Speed 52 mph    
Visibility 5 miles    
Events Fog , Snow    
Averages and records for this station are not official NWS values.
T = Trace of Precipitation, MM = Missing Value Source: NWS Daily Summary

Daily Weather History Graph

Daily Weather History Graph

Search for Another Location

Airport:

Trip Planner

Search our weather history database for the weather conditions in past years. The results will help you decide how hot, cold, wet, or windy it might be!

Date:

Astronomy

Dec. 20, 2012 Rise Set
Actual Time 7:37 AM CST 5:03 PM CST
Civil Twilight 7:07 AM CST 5:33 PM CST
Nautical Twilight 6:34 AM CST 6:07 PM CST
Astronomical Twilight 6:01 AM CST 6:39 PM CST
Moon 12:19 PM CST (12/20) 12:28 AM CST (12/20)
Length of Visible Light 10h 26m
Length of Day
9h 26m
First Quarter, 55% of the Moon is Illuminated
Dec 20
First Quarter
Dec 28
Full
Jan 4
Last Quarter
Jan 11
New
Jan 18
First Quarter

Hourly Weather History & Observations

Time (CST) Temp. Windchill Dew Point Humidity Pressure Visibility Wind Dir Wind Speed Gust Speed Precip Events Conditions
1:53 AM 33.1 °F 20.9 °F 32.0 °F 96% 29.52 in 3.0 mi NNW 21.9 mph 28.8 mph 0.01 in Snow Light Snow
2:02 AM 33.8 °F 21.9 °F 30.2 °F 87% 29.50 in 2.5 mi NNW 21.9 mph 28.8 mph 0.00 in Snow Light Snow
2:15 AM 33.8 °F 21.6 °F 30.2 °F 87% 29.50 in 1.8 mi North 23.0 mph 32.2 mph 0.00 in Snow Light Snow
2:31 AM 33.8 °F 20.5 °F 30.2 °F 87% 29.52 in 2.0 mi NNW 27.6 mph 38.0 mph 0.00 in Snow Light Snow
2:40 AM 33.8 °F 19.2 °F 30.2 °F 87% 29.53 in 1.5 mi NNW 34.5 mph 47.2 mph 0.00 in Snow Light Snow
2:50 AM 32.0 °F 17.2 °F 30.2 °F 93% 29.54 in 0.8 mi NNW 32.2 mph 50.6 mph 0.01 in Snow Light Snow
2:51 AM 32.0 °F 17.4 °F 30.0 °F 92% 29.56 in 0.5 mi NNW 31.1 mph 50.6 mph 0.01 in Fog , Snow Snow
3:53 AM 30.0 °F 13.8 °F 28.0 °F 92% 29.62 in 0.8 mi NW 35.7 mph 47.2 mph 0.02 in Snow Light Snow
4:34 AM 28.4 °F 12.0 °F 26.6 °F 93% 29.64 in 0.2 mi NW 33.4 mph 49.5 mph 0.01 in Fog , Snow Heavy Snow
4:48 AM 28.4 °F 10.6 °F 26.6 °F 93% 29.65 in 0.2 mi NW 41.4 mph 49.5 mph 0.02 in Fog Light Freezing Fog
4:53 AM 27.0 °F 9.6 °F 26.1 °F 96% 29.68 in 0.2 mi NW 35.7 mph 48.3 mph 0.02 in Fog Light Freezing Fog
5:14 AM 26.6 °F 7.9 °F 24.8 °F 93% 29.68 in 0.5 mi NW 42.6 mph 51.8 mph 0.01 in Fog Light Freezing Fog
5:53 AM 25.0 °F 6.0 °F 23.0 °F 92% 29.76 in 0.5 mi NW 40.3 mph 49.5 mph 0.03 in Fog Light Freezing Fog
6:13 AM 24.8 °F 6.8 °F 23.0 °F 93% 29.76 in 0.5 mi NW 34.5 mph 50.6 mph 0.01 in Fog Light Freezing Fog
6:53 AM 25.0 °F 7.6 °F 21.9 °F 88% 29.84 in 0.8 mi NW 32.2 mph 46.0 mph 0.01 in   Overcast
7:04 AM 24.8 °F 6.4 °F 21.2 °F 86% 29.82 in 1.0 mi NW 36.8 mph 47.2 mph N/A   Overcast
7:18 AM 24.8 °F 6.2 °F 21.2 °F 86% 29.83 in 1.0 mi NW 38.0 mph 48.3 mph N/A   Overcast
7:40 AM 24.8 °F 8.4 °F 19.4 °F 80% 29.86 in 2.5 mi NW 27.6 mph 40.3 mph N/A   Overcast
7:53 AM 24.1 °F 6.6 °F 19.9 °F 84% 29.90 in 2.0 mi NW 31.1 mph 38.0 mph N/A   Overcast
8:20 AM 23.0 °F 5.7 °F 19.4 °F 86% 29.89 in 4.0 mi WNW 28.8 mph 38.0 mph N/A   Overcast
8:34 AM 23.0 °F 5.7 °F 17.6 °F 80% 29.91 in 2.5 mi NW 28.8 mph 39.1 mph N/A   Haze
8:53 AM 23.0 °F 6.0 °F 18.0 °F 81% 29.95 in 2.5 mi NW 27.6 mph 40.3 mph 0.00 in Snow Light Snow
9:02 AM 23.0 °F 6.6 °F 17.6 °F 80% 29.93 in 5.0 mi NW 25.3 mph 38.0 mph 0.00 in Snow Light Snow
9:53 AM 23.0 °F 5.7 °F 16.0 °F 74% 30.01 in 10.0 mi WNW 28.8 mph 35.7 mph 0.00 in   Clear
10:53 AM 23.0 °F 5.1 °F 16.0 °F 74% 30.06 in 10.0 mi NW 31.1 mph 40.3 mph N/A   Clear
11:53 AM 25.0 °F 8.1 °F 17.1 °F 72% 30.07 in 10.0 mi NW 29.9 mph 38.0 mph N/A   Clear
12:53 PM 26.1 °F 11.0 °F 18.0 °F 71% 30.09 in 10.0 mi WNW 24.2 mph 33.4 mph 0.00 in Snow Light Snow
1:53 PM 27.0 °F 13.2 °F 18.0 °F 69% 30.11 in 10.0 mi WNW 20.7 mph 31.1 mph 0.00 in   Clear
2:53 PM 28.0 °F 13.9 °F 18.0 °F 66% 30.14 in 10.0 mi WNW 23.0 mph 33.4 mph N/A   Clear
3:53 PM 28.0 °F 14.3 °F 18.0 °F 66% 30.17 in 10.0 mi WNW 21.9 mph 27.6 mph N/A   Clear
4:53 PM 28.0 °F 15.3 °F 18.0 °F 66% 30.22 in 10.0 mi WNW 18.4 mph - N/A   Clear
5:53 PM 27.0 °F 14.7 °F 16.0 °F 63% 30.22 in 10.0 mi WNW 16.1 mph - N/A   Clear
6:53 PM 25.0 °F 14.2 °F 15.1 °F 66% 30.23 in 10.0 mi WNW 11.5 mph - N/A   Clear
7:53 PM 25.0 °F 14.2 °F 14.0 °F 63% 30.25 in 10.0 mi WNW 11.5 mph - N/A   Clear
8:53 PM 26.1 °F 14.5 °F 15.1 °F 63% 30.26 in 10.0 mi WNW 13.8 mph - N/A   Clear
9:53 PM 26.1 °F 15.6 °F 15.1 °F 63% 30.28 in 10.0 mi WNW 11.5 mph - N/A   Clear
10:53 PM 23.0 °F 13.9 °F 14.0 °F 68% 30.29 in 10.0 mi West 8.1 mph - N/A   Clear
11:53 PM 23.0 °F 13.1 °F 15.1 °F 72% 30.30 in 10.0 mi West 9.2 mph - N/A   Clear